| time (UTC) | temp C | wind direction | speed KPH | gust KPH | rain 1hr cm | rain 24hr cm | rain mn cm | humidity % | barometer mb |
| 20260510032508 | 12 | 33 | 0.0 | 0.0 | 0.00 | 0.00 | 0.00 | 92 | 1012.8 |
| 20260510032008 | 12 | 0 | 1.6 | 1.6 | 0.00 | 0.00 | 0.00 | 92 | 1012.9 |
| 20260510031504 | 12 | 343 | 3.2 | 3.2 | 0.00 | 0.00 | 0.00 | 92 | 1012.6 |
| 20260510031000 | 12 | 37 | 0.0 | 1.6 | 0.00 | 0.00 | 0.00 | 91 | 1012.9 |
| 20260510030455 | 12 | 343 | 1.6 | 1.6 | 0.00 | 0.00 | 0.00 | 90 | 1012.8 |
| 20260510025953 | 12 | 352 | 0.0 | 0.0 | 0.00 | 0.00 | 0.00 | 90 | 1012.8 |
| 20260510025450 | 12 | 6 | 0.0 | 1.6 | 0.00 | 0.00 | 0.00 | 90 | 1012.5 |
| 20260510024948 | 12 | 39 | 0.0 | 1.6 | 0.00 | 0.00 | 0.00 | 89 | 1012.3 |
| 20260510024444 | 12 | 80 | 4.8 | 4.8 | 0.00 | 0.00 | 0.00 | 89 | 1012.5 |
| 20260510023940 | 13 | 2 | 0.0 | 0.0 | 0.00 | 0.00 | 0.00 | 88 | 1012.0 |
| 20260510023436 | 13 | 25 | 0.0 | 0.0 | 0.00 | 0.00 | 0.00 | 87 | 1012.2 |
| 20260510022933 | 13 | 17 | 0.0 | 0.0 | 0.00 | 0.00 | 0.00 | 86 | 1012.3 |
| 20260510022432 | 13 | 24 | 0.0 | 0.0 | 0.00 | 0.00 | 0.00 | 86 | 1012.3 |
| 20260510021932 | 13 | 358 | 1.6 | 1.6 | 0.00 | 0.00 | 0.00 | 85 | 1012.2 |
| 20260510021430 | 13 | 58 | 1.6 | 1.6 | 0.00 | 0.00 | 0.00 | 85 | 1012.1 |
| 20260510020926 | 14 | 16 | 0.0 | 0.0 | 0.00 | 0.00 | 0.00 | 84 | 1011.7 |
| 20260510020421 | 15 | 2 | 1.6 | 1.6 | 0.00 | 0.00 | 0.00 | 83 | 1011.8 |
| 20260510015917 | 15 | 27 | 0.0 | 0.0 | 0.00 | 0.00 | 0.00 | 83 | 1011.8 |
| 20260510015413 | 15 | 3 | 0.0 | 0.0 | 0.00 | 0.00 | 0.00 | 82 | 1011.7 |
| 20260510014908 | 15 | 350 | 1.6 | 1.6 | 0.00 | 0.00 | 0.00 | 81 | 1011.8 |
| 20260510014406 | 15 | 358 | 0.0 | 0.0 | 0.00 | 0.00 | 0.00 | 81 | 1011.7 |
| 20260510013902 | 15 | 7 | 0.0 | 0.0 | 0.00 | 0.00 | 0.00 | 80 | 1011.5 |
| 20260510013357 | 15 | 355 | 0.0 | 1.6 | 0.00 | 0.00 | 0.00 | 79 | 1011.2 |
| 20260510012852 | 15 | 17 | 0.0 | 0.0 | 0.00 | 0.00 | 0.00 | 79 | 1011.3 |
| 20260510012347 | 15 | 350 | 0.0 | 1.6 | 0.00 | 0.00 | 0.00 | 79 | 1011.0 |
| 20260510011842 | 15 | 23 | 0.0 | 0.0 | 0.00 | 0.00 | 0.00 | 79 | 1011.0 |
| 20260510011338 | 15 | 66 | 1.6 | 1.6 | 0.00 | 0.00 | 0.00 | 79 | 1010.8 |
| 20260510010834 | 16 | 9 | 0.0 | 0.0 | 0.00 | 0.00 | 0.00 | 77 | 1010.9 |
| 20260510010332 | 16 | 33 | 0.0 | 0.0 | 0.00 | 0.00 | 0.00 | 76 | 1010.9 |
| 20260510005828 | 16 | 37 | 0.0 | 0.0 | 0.00 | 0.00 | 0.00 | 75 | 1010.6 |
| 20260510005325 | 16 | 0 | 0.0 | 0.0 | 0.00 | 0.00 | 0.00 | 74 | 1010.3 |
| 20260510004823 | 17 | 9 | 0.0 | 1.6 | 0.00 | 0.00 | 0.00 | 72 | 1010.4 |
| 20260510004320 | 17 | 34 | 0.0 | 0.0 | 0.00 | 0.00 | 0.00 | 71 | 1010.1 |
| 20260510003818 | 18 | 58 | 1.6 | 1.6 | 0.00 | 0.00 | 0.00 | 69 | 1009.9 |
| 20260510003314 | 18 | 1 | 1.6 | 1.6 | 0.00 | 0.00 | 0.00 | 68 | 1010.2 |
| 20260510002813 | 18 | 25 | 0.0 | 0.0 | 0.00 | 0.00 | 0.00 | 66 | 1009.9 |
| 20260510002310 | 19 | 11 | 0.0 | 0.0 | 0.00 | 0.00 | 0.00 | 64 | 1009.9 |
| 20260510001806 | 20 | 59 | 1.6 | 1.6 | 0.00 | 0.00 | 0.00 | 62 | 1009.9 |
| 20260510001305 | 20 | 47 | 0.0 | 0.0 | 0.00 | 0.00 | 0.00 | 60 | 1009.7 |
| 20260510000800 | 20 | 54 | 1.6 | 1.6 | 0.00 | 0.00 | 0.00 | 59 | 1009.4 |
| 20260510000258 | 20 | 349 | 1.6 | 1.6 | 0.00 | 0.00 | 0.00 | 57 | 1009.6 |
| 20260509235755 | 21 | 23 | 0.0 | 0.0 | 0.00 | 0.00 | 0.00 | 59 | 1009.8 |
| 20260509235252 | 21 | 19 | 0.0 | 0.0 | 0.00 | 0.00 | 0.00 | 58 | 1009.6 |
| 20260509234747 | 21 | 43 | 0.0 | 0.0 | 0.00 | 0.00 | 0.00 | 58 | 1009.6 |
| 20260509234244 | 21 | 28 | 0.0 | 0.0 | 0.00 | 0.00 | 0.00 | 57 | 1009.7 |
| 20260509233743 | 21 | 31 | 0.0 | 0.0 | 0.00 | 0.00 | 0.00 | 57 | 1009.7 |
| 20260509233240 | 21 | 357 | 0.0 | 1.6 | 0.00 | 0.00 | 0.00 | 56 | 1009.7 |
| 20260509232736 | 21 | 352 | 0.0 | 1.6 | 0.00 | 0.00 | 0.00 | 57 | 1009.4 |
| 20260509232233 | 21 | 358 | 1.6 | 1.6 | 0.00 | 0.00 | 0.00 | 57 | 1009.7 |
| 20260509231729 | 21 | 18 | 1.6 | 1.6 | 0.00 | 0.00 | 0.00 | 57 | 1009.7 |
| 20260509231227 | 21 | 55 | 3.2 | 4.8 | 0.00 | 0.00 | 0.00 | 56 | 1009.6 |
| 20260509230724 | 21 | 24 | 1.6 | 3.2 | 0.00 | 0.00 | 0.00 | 56 | 1009.5 |
| 20260509230221 | 21 | 6 | 3.2 | 3.2 | 0.00 | 0.00 | 0.00 | 55 | 1009.4 |
| 20260509225716 | 21 | 11 | 6.4 | 9.7 | 0.00 | 0.00 | 0.00 | 55 | 1009.4 |
| 20260509225212 | 22 | 40 | 0.0 | 1.6 | 0.00 | 0.00 | 0.00 | 55 | 1009.5 |
| 20260509224708 | 22 | 34 | 0.0 | 1.6 | 0.00 | 0.00 | 0.00 | 55 | 1009.5 |
| 20260509224205 | 22 | 64 | 1.6 | 1.6 | 0.00 | 0.00 | 0.00 | 55 | 1009.5 |
| 20260509223702 | 22 | 36 | 1.6 | 3.2 | 0.00 | 0.00 | 0.00 | 54 | 1009.6 |
| 20260509223159 | 22 | 41 | 3.2 | 3.2 | 0.00 | 0.00 | 0.00 | 53 | 1009.4 |
| 20260509222656 | 22 | 3 | 1.6 | 3.2 | 0.00 | 0.00 | 0.00 | 53 | 1009.6 |
| 20260509222152 | 22 | 356 | 1.6 | 3.2 | 0.00 | 0.00 | 0.00 | 53 | 1009.5 |
| 20260509221648 | 22 | 51 | 9.7 | 14.5 | 0.00 | 0.00 | 0.00 | 51 | 1009.5 |
| 20260509221143 | 22 | 359 | 6.4 | 11.3 | 0.00 | 0.00 | 0.00 | 52 | 1009.5 |
| 20260509220640 | 22 | 130 | 1.6 | 3.2 | 0.00 | 0.00 | 0.00 | 52 | 1009.5 |
| 20260509220136 | 22 | 330 | 4.8 | 9.7 | 0.00 | 0.00 | 0.00 | 51 | 1009.4 |
| 20260509215632 | 22 | 67 | 8.0 | 9.7 | 0.00 | 0.00 | 0.00 | 51 | 1009.4 |
| 20260509215129 | 22 | 23 | 4.8 | 6.4 | 0.00 | 0.00 | 0.00 | 51 | 1009.4 |
| 20260509214626 | 22 | 51 | 4.8 | 4.8 | 0.00 | 0.00 | 0.00 | 51 | 1009.5 |
| 20260509214122 | 22 | 359 | 1.6 | 3.2 | 0.00 | 0.00 | 0.00 | 52 | 1009.5 |
| 20260509213619 | 22 | 4 | 4.8 | 6.4 | 0.00 | 0.00 | 0.00 | 51 | 1009.4 |
| 20260509213115 | 22 | 66 | 3.2 | 4.8 | 0.00 | 0.00 | 0.00 | 50 | 1009.0 |
| 20260509212613 | 22 | 45 | 3.2 | 4.8 | 0.00 | 0.00 | 0.00 | 52 | 1009.2 |
| 20260509212110 | 22 | 340 | 1.6 | 3.2 | 0.00 | 0.00 | 0.00 | 51 | 1009.1 |
| 20260509211606 | 22 | 39 | 6.4 | 11.3 | 0.00 | 0.00 | 0.00 | 50 | 1009.0 |
| 20260509211103 | 22 | 71 | 3.2 | 4.8 | 0.00 | 0.00 | 0.00 | 50 | 1009.1 |
| 20260509210559 | 22 | 358 | 6.4 | 6.4 | 0.00 | 0.00 | 0.00 | 49 | 1009.4 |
| 20260509210056 | 22 | 63 | 3.2 | 3.2 | 0.00 | 0.00 | 0.00 | 50 | 1009.2 |
| 20260509205556 | 22 | 271 | 3.2 | 6.4 | 0.00 | 0.00 | 0.00 | 48 | 1009.0 |
| 20260509205051 | 22 | 343 | 3.2 | 4.8 | 0.00 | 0.00 | 0.00 | 49 | 1009.2 |
| 20260509204548 | 23 | 348 | 3.2 | 3.2 | 0.00 | 0.00 | 0.00 | 47 | 1009.0 |
| 20260509204044 | 23 | 343 | 3.2 | 3.2 | 0.00 | 0.00 | 0.00 | 48 | 1009.0 |
| 20260509203540 | 22 | 340 | 4.8 | 4.8 | 0.00 | 0.00 | 0.00 | 49 | 1009.1 |
| 20260509203039 | 22 | 319 | 4.8 | 4.8 | 0.00 | 0.00 | 0.00 | 48 | 1008.9 |
| 20260509202539 | 23 | 321 | 4.8 | 6.4 | 0.00 | 0.00 | 0.00 | 50 | 1008.9 |
| 20260509202034 | 23 | 342 | 4.8 | 6.4 | 0.00 | 0.00 | 0.00 | 53 | 1008.9 |
| 20260509201530 | 23 | 34 | 3.2 | 6.4 | 0.00 | 0.00 | 0.00 | 52 | 1008.8 |
| 20260509201028 | 23 | 325 | 4.8 | 6.4 | 0.00 | 0.00 | 0.00 | 47 | 1008.9 |
| 20260509200527 | 23 | 341 | 14.5 | 17.7 | 0.00 | 0.00 | 0.00 | 46 | 1009.2 |
| 20260509200024 | 23 | 285 | 6.4 | 12.9 | 0.00 | 0.00 | 0.00 | 49 | 1009.2 |
| 20260509195520 | 22 | 56 | 6.4 | 9.7 | 0.00 | 0.00 | 0.00 | 49 | 1008.9 |
| 20260509195019 | 23 | 42 | 3.2 | 4.8 | 0.00 | 0.00 | 0.00 | 49 | 1009.2 |
| 20260509194515 | 23 | 54 | 3.2 | 4.8 | 0.00 | 0.00 | 0.00 | 48 | 1009.2 |
| 20260509194013 | 23 | 346 | 9.7 | 12.9 | 0.00 | 0.00 | 0.00 | 48 | 1009.4 |
| 20260509193512 | 23 | 312 | 6.4 | 6.4 | 0.00 | 0.00 | 0.00 | 50 | 1009.5 |
| 20260509193010 | 23 | 76 | 8.0 | 12.9 | 0.00 | 0.00 | 0.00 | 47 | 1009.4 |
| 20260509192506 | 23 | 74 | 8.0 | 9.7 | 0.00 | 0.00 | 0.00 | 48 | 1009.6 |
| 20260509192001 | 23 | 338 | 4.8 | 9.7 | 0.00 | 0.00 | 0.00 | 48 | 1009.6 |
| 20260509191456 | 23 | 307 | 4.8 | 6.4 | 0.00 | 0.00 | 0.00 | 48 | 1009.7 |
| 20260509190952 | 23 | 69 | 6.4 | 9.7 | 0.00 | 0.00 | 0.00 | 48 | 1009.5 |
| 20260509190449 | 23 | 284 | 9.7 | 11.3 | 0.00 | 0.00 | 0.00 | 49 | 1009.4 |
| 20260509185947 | 22 | 324 | 4.8 | 6.4 | 0.00 | 0.00 | 0.00 | 50 | 1009.6 |
| 20260509185444 | 21 | 309 | 6.4 | 9.7 | 0.00 | 0.00 | 0.00 | 50 | 1009.7 |
| 20260509184941 | 21 | 331 | 6.4 | 9.7 | 0.00 | 0.00 | 0.00 | 51 | 1009.8 |
| 20260509184439 | 21 | 308 | 4.8 | 9.7 | 0.00 | 0.00 | 0.00 | 54 | 1009.9 |
| 20260509183935 | 22 | 15 | 4.8 | 4.8 | 0.00 | 0.00 | 0.00 | 54 | 1010.1 |
| 20260509183435 | 22 | 34 | 1.6 | 1.6 | 0.00 | 0.00 | 0.00 | 52 | 1010.2 |
| 20260509182932 | 22 | 17 | 4.8 | 6.4 | 0.00 | 0.00 | 0.00 | 55 | 1010.2 |
| 20260509182428 | 22 | 357 | 9.7 | 11.3 | 0.00 | 0.00 | 0.00 | 57 | 1010.2 |
| 20260509181925 | 22 | 41 | 3.2 | 3.2 | 0.00 | 0.00 | 0.00 | 59 | 1010.2 |
| 20260509181423 | 22 | 14 | 1.6 | 3.2 | 0.00 | 0.00 | 0.00 | 59 | 1010.3 |
| 20260509180920 | 21 | 339 | 3.2 | 3.2 | 0.00 | 0.00 | 0.00 | 59 | 1010.4 |
| 20260509180415 | 21 | 0 | 3.2 | 4.8 | 0.00 | 0.00 | 0.00 | 56 | 1010.3 |
| 20260509175913 | 21 | 352 | 6.4 | 6.4 | 0.00 | 0.00 | 0.00 | 55 | 1010.6 |
| 20260509175409 | 21 | 274 | 4.8 | 9.7 | 0.00 | 0.00 | 0.00 | 55 | 1010.8 |
| 20260509174905 | 21 | 66 | 3.2 | 3.2 | 0.00 | 0.00 | 0.00 | 56 | 1010.8 |
| 20260509174402 | 20 | 314 | 4.8 | 11.3 | 0.00 | 0.00 | 0.00 | 56 | 1010.7 |
| 20260509173858 | 20 | 16 | 6.4 | 9.7 | 0.00 | 0.00 | 0.00 | 57 | 1010.9 |
| 20260509173357 | 20 | 31 | 6.4 | 11.3 | 0.00 | 0.00 | 0.00 | 57 | 1011.2 |
| 20260509172854 | 20 | 324 | 4.8 | 9.7 | 0.00 | 0.00 | 0.00 | 58 | 1011.2 |
| 20260509172351 | 20 | 56 | 3.2 | 3.2 | 0.00 | 0.00 | 0.00 | 57 | 1011.0 |
| 20260509171847 | 20 | 37 | 4.8 | 6.4 | 0.00 | 0.00 | 0.00 | 56 | 1011.1 |
| 20260509171343 | 20 | 67 | 4.8 | 4.8 | 0.00 | 0.00 | 0.00 | 56 | 1011.2 |
| 20260509170840 | 20 | 24 | 3.2 | 4.8 | 0.00 | 0.00 | 0.00 | 57 | 1011.1 |
| 20260509170335 | 20 | 262 | 3.2 | 6.4 | 0.00 | 0.00 | 0.00 | 55 | 1011.2 |
| 20260509165830 | 21 | 341 | 8.0 | 11.3 | 0.00 | 0.00 | 0.00 | 59 | 1011.3 |
| 20260509165325 | 20 | 17 | 1.6 | 1.6 | 0.00 | 0.00 | 0.00 | 59 | 1011.2 |
| 20260509164821 | 20 | 29 | 3.2 | 3.2 | 0.00 | 0.00 | 0.00 | 59 | 1011.1 |
| 20260509164317 | 20 | 17 | 3.2 | 4.8 | 0.00 | 0.00 | 0.00 | 60 | 1011.1 |
| 20260509163814 | 21 | 38 | 3.2 | 4.8 | 0.00 | 0.00 | 0.00 | 58 | 1011.2 |
| 20260509163311 | 20 | 34 | 4.8 | 6.4 | 0.00 | 0.00 | 0.00 | 57 | 1011.1 |
| 20260509162810 | 20 | 54 | 4.8 | 4.8 | 0.00 | 0.00 | 0.00 | 56 | 1011.1 |
| 20260509162308 | 21 | 318 | 4.8 | 4.8 | 0.00 | 0.00 | 0.00 | 57 | 1011.1 |
| 20260509161805 | 20 | 310 | 4.8 | 6.4 | 0.00 | 0.00 | 0.00 | 58 | 1011.0 |
| 20260509161301 | 20 | 13 | 0.0 | 1.6 | 0.00 | 0.00 | 0.00 | 59 | 1011.2 |
| 20260509160756 | 20 | 49 | 3.2 | 3.2 | 0.00 | 0.00 | 0.00 | 61 | 1011.1 |
| 20260509160253 | 20 | 340 | 6.4 | 9.7 | 0.00 | 0.00 | 0.00 | 62 | 1011.5 |
| 20260509155748 | 20 | 121 | 3.2 | 4.8 | 0.00 | 0.00 | 0.00 | 63 | 1011.2 |
| 20260509155245 | 20 | 320 | 8.0 | 12.9 | 0.00 | 0.00 | 0.00 | 62 | 1011.2 |
| 20260509154741 | 20 | 81 | 1.6 | 1.6 | 0.00 | 0.00 | 0.00 | 63 | 1011.3 |
| 20260509154238 | 20 | 8 | 3.2 | 4.8 | 0.00 | 0.00 | 0.00 | 62 | 1011.4 |
| 20260509153735 | 20 | 12 | 6.4 | 6.4 | 0.00 | 0.00 | 0.00 | 62 | 1011.2 |
| 20260509153231 | 19 | 116 | 4.8 | 6.4 | 0.00 | 0.00 | 0.00 | 65 | 1011.2 |
| 20260509152728 | 20 | 51 | 6.4 | 6.4 | 0.00 | 0.00 | 0.00 | 64 | 1011.3 |
| 20260509152224 | 20 | 54 | 6.4 | 9.7 | 0.00 | 0.00 | 0.00 | 63 | 1011.0 |
| 20260509151721 | 19 | 328 | 4.8 | 6.4 | 0.00 | 0.00 | 0.00 | 64 | 1011.0 |
| 20260509151218 | 18 | 310 | 4.8 | 6.4 | 0.00 | 0.00 | 0.00 | 65 | 1011.0 |
| 20260509150716 | 18 | 86 | 4.8 | 6.4 | 0.00 | 0.00 | 0.00 | 65 | 1011.2 |
| 20260509150214 | 18 | 327 | 3.2 | 4.8 | 0.00 | 0.00 | 0.00 | 66 | 1011.3 |
| 20260509145710 | 18 | 337 | 4.8 | 6.4 | 0.00 | 0.00 | 0.00 | 66 | 1011.1 |
| 20260509145206 | 20 | 66 | 9.7 | 11.3 | 0.00 | 0.00 | 0.00 | 63 | 1011.3 |
| 20260509144702 | 20 | 67 | 3.2 | 4.8 | 0.00 | 0.00 | 0.00 | 65 | 1011.2 |
| 20260509144159 | 19 | 27 | 8.0 | 12.9 | 0.00 | 0.00 | 0.00 | 66 | 1011.4 |
| 20260509143657 | 18 | 342 | 6.4 | 11.3 | 0.00 | 0.00 | 0.00 | 67 | 1011.3 |
| 20260509143154 | 18 | 14 | 6.4 | 6.4 | 0.00 | 0.00 | 0.00 | 66 | 1011.0 |
| 20260509142649 | 18 | 47 | 3.2 | 4.8 | 0.00 | 0.00 | 0.00 | 71 | 1011.4 |
| 20260509142146 | 18 | 334 | 11.3 | 12.9 | 0.00 | 0.00 | 0.00 | 68 | 1011.4 |
| 20260509141642 | 17 | 346 | 4.8 | 4.8 | 0.00 | 0.00 | 0.00 | 70 | 1011.4 |
| 20260509141138 | 17 | 32 | 3.2 | 4.8 | 0.00 | 0.00 | 0.00 | 70 | 1011.6 |
| 20260509140636 | 17 | 81 | 3.2 | 4.8 | 0.00 | 0.00 | 0.00 | 70 | 1011.6 |
| 20260509140133 | 17 | 53 | 8.0 | 9.7 | 0.00 | 0.00 | 0.00 | 70 | 1011.9 |
| 20260509135630 | 17 | 69 | 3.2 | 4.8 | 0.00 | 0.00 | 0.00 | 70 | 1012.0 |
| 20260509135128 | 17 | 345 | 3.2 | 4.8 | 0.00 | 0.00 | 0.00 | 71 | 1012.1 |
| 20260509134625 | 16 | 326 | 4.8 | 6.4 | 0.00 | 0.00 | 0.00 | 71 | 1012.2 |
| 20260509134122 | 16 | 51 | 4.8 | 6.4 | 0.00 | 0.00 | 0.00 | 71 | 1012.5 |
| 20260509133620 | 16 | 44 | 3.2 | 4.8 | 0.00 | 0.00 | 0.00 | 72 | 1012.4 |
| 20260509133117 | 16 | 18 | 3.2 | 3.2 | 0.00 | 0.00 | 0.00 | 72 | 1012.3 |
| 20260509132615 | 16 | 36 | 3.2 | 3.2 | 0.00 | 0.00 | 0.00 | 73 | 1012.5 |
| 20260509132113 | 15 | 61 | 4.8 | 6.4 | 0.00 | 0.00 | 0.00 | 74 | 1012.4 |
| 20260509131608 | 15 | 347 | 3.2 | 4.8 | 0.00 | 0.00 | 0.00 | 76 | 1012.2 |
| 20260509131106 | 15 | 39 | 1.6 | 1.6 | 0.00 | 0.00 | 0.00 | 76 | 1012.4 |
| 20260509130601 | 15 | 4 | 3.2 | 3.2 | 0.00 | 0.00 | 0.00 | 76 | 1012.4 |
| 20260509130058 | 15 | 10 | 0.0 | 1.6 | 0.00 | 0.00 | 0.00 | 77 | 1012.4 |
| 20260509125555 | 14 | 359 | 3.2 | 3.2 | 0.00 | 0.00 | 0.00 | 76 | 1012.3 |
| 20260509125051 | 14 | 44 | 1.6 | 1.6 | 0.00 | 0.00 | 0.00 | 76 | 1012.2 |
| 20260509124548 | 14 | 6 | 1.6 | 3.2 | 0.00 | 0.00 | 0.00 | 76 | 1012.3 |
| 20260509124045 | 13 | 329 | 3.2 | 3.2 | 0.00 | 0.00 | 0.00 | 76 | 1012.3 |
| 20260509123543 | 13 | 0 | 0.0 | 1.6 | 0.00 | 0.00 | 0.00 | 77 | 1012.3 |
| 20260509123039 | 13 | 2 | 0.0 | 1.6 | 0.00 | 0.00 | 0.00 | 77 | 1012.3 |
| 20260509122535 | 13 | 358 | 3.2 | 3.2 | 0.00 | 0.00 | 0.00 | 76 | 1012.2 |
| 20260509122033 | 13 | 1 | 1.6 | 3.2 | 0.00 | 0.00 | 0.00 | 75 | 1012.4 |
| 20260509121529 | 13 | 14 | 3.2 | 4.8 | 0.00 | 0.00 | 0.00 | 75 | 1012.4 |
| 20260509121027 | 13 | 347 | 1.6 | 3.2 | 0.00 | 0.00 | 0.00 | 76 | 1012.6 |
| 20260509120525 | 13 | 28 | 1.6 | 1.6 | 0.00 | 0.00 | 0.00 | 78 | 1012.2 |
| 20260509120023 | 12 | 15 | 0.0 | 0.0 | 0.00 | 0.00 | 0.00 | 81 | 1012.1 |
| 20260509115519 | 12 | 50 | 0.0 | 1.6 | 0.00 | 0.00 | 0.00 | 81 | 1012.3 |
| 20260509115017 | 12 | 3 | 0.0 | 0.0 | 0.00 | 0.00 | 0.00 | 81 | 1012.2 |
| 20260509114515 | 12 | 0 | 0.0 | 0.0 | 0.00 | 0.00 | 0.00 | 82 | 1012.3 |
| 20260509114014 | 12 | 359 | 0.0 | 0.0 | 0.00 | 0.00 | 0.00 | 82 | 1012.5 |
| 20260509113512 | 12 | 354 | 1.6 | 1.6 | 0.00 | 0.00 | 0.00 | 82 | 1012.8 |
| 20260509113010 | 12 | 356 | 0.0 | 0.0 | 0.00 | 0.00 | 0.00 | 81 | 1012.4 |
| 20260509112506 | 11 | 356 | 0.0 | 1.6 | 0.00 | 0.00 | 0.00 | 80 | 1012.5 |
| 20260509112002 | 11 | 4 | 0.0 | 0.0 | 0.00 | 0.00 | 0.00 | 81 | 1012.3 |
| 20260509111500 | 11 | 3 | 0.0 | 0.0 | 0.00 | 0.00 | 0.00 | 82 | 1012.4 |
| 20260509110957 | 11 | 3 | 0.0 | 0.0 | 0.00 | 0.00 | 0.00 | 82 | 1012.3 |
| 20260509110453 | 11 | 1 | 0.0 | 1.6 | 0.00 | 0.00 | 0.00 | 82 | 1012.2 |
| 20260509105951 | 11 | 6 | 0.0 | 1.6 | 0.00 | 0.00 | 0.00 | 83 | 1012.4 |
| 20260509105449 | 11 | 356 | 1.6 | 1.6 | 0.00 | 0.00 | 0.00 | 82 | 1012.3 |
| 20260509104946 | 11 | 350 | 1.6 | 1.6 | 0.00 | 0.00 | 0.00 | 83 | 1012.4 |
| 20260509104443 | 11 | 1 | 1.6 | 1.6 | 0.00 | 0.00 | 0.00 | 85 | 1012.2 |
| 20260509103940 | 10 | 6 | 1.6 | 1.6 | 0.00 | 0.00 | 0.00 | 85 | 1012.5 |
| 20260509103438 | 10 | 23 | 0.0 | 0.0 | 0.00 | 0.00 | 0.00 | 86 | 1012.5 |
| 20260509102936 | 10 | 36 | 1.6 | 1.6 | 0.00 | 0.00 | 0.00 | 86 | 1012.4 |
| 20260509102433 | 10 | 17 | 0.0 | 0.0 | 0.00 | 0.00 | 0.00 | 85 | 1012.4 |
| 20260509101928 | 10 | 18 | 0.0 | 0.0 | 0.00 | 0.00 | 0.00 | 84 | 1012.4 |
| 20260509101425 | 10 | 10 | 0.0 | 0.0 | 0.00 | 0.00 | 0.00 | 83 | 1012.5 |
| 20260509100923 | 10 | 9 | 0.0 | 0.0 | 0.00 | 0.00 | 0.00 | 83 | 1012.4 |
| 20260509100420 | 10 | 9 | 0.0 | 0.0 | 0.00 | 0.00 | 0.00 | 83 | 1012.5 |
| 20260509095916 | 10 | 9 | 0.0 | 0.0 | 0.00 | 0.00 | 0.00 | 83 | 1012.5 |
| 20260509095414 | 10 | 57 | 1.6 | 1.6 | 0.00 | 0.00 | 0.00 | 83 | 1012.5 |
| 20260509094910 | 11 | 35 | 0.0 | 0.0 | 0.00 | 0.00 | 0.00 | 82 | 1012.4 |
| 20260509094407 | 11 | 42 | 0.0 | 0.0 | 0.00 | 0.00 | 0.00 | 82 | 1012.4 |
| 20260509093905 | 11 | 31 | 0.0 | 0.0 | 0.00 | 0.00 | 0.00 | 82 | 1012.5 |
| 20260509093402 | 11 | 346 | 0.0 | 0.0 | 0.00 | 0.00 | 0.00 | 80 | 1012.3 |
| 20260509092900 | 11 | 359 | 0.0 | 0.0 | 0.00 | 0.00 | 0.00 | 76 | 1012.5 |
| 20260509092357 | 11 | 358 | 0.0 | 0.0 | 0.00 | 0.00 | 0.00 | 75 | 1012.4 |
| 20260509091856 | 11 | 3 | 1.6 | 1.6 | 0.00 | 0.00 | 0.00 | 75 | 1012.5 |
| 20260509091352 | 11 | 10 | 0.0 | 0.0 | 0.00 | 0.00 | 0.00 | 75 | 1012.6 |
| 20260509090850 | 12 | 8 | 0.0 | 1.6 | 0.00 | 0.00 | 0.00 | 73 | 1012.5 |
| 20260509090347 | 12 | 5 | 1.6 | 1.6 | 0.00 | 0.00 | 0.00 | 72 | 1012.6 |
| 20260509085844 | 12 | 58 | 1.6 | 1.6 | 0.00 | 0.00 | 0.00 | 71 | 1012.6 |
| 20260509085341 | 12 | 33 | 0.0 | 1.6 | 0.00 | 0.00 | 0.00 | 70 | 1012.6 |
| 20260509084838 | 12 | 344 | 1.6 | 1.6 | 0.00 | 0.00 | 0.00 | 72 | 1012.8 |
| 20260509084335 | 12 | 39 | 0.0 | 0.0 | 0.00 | 0.00 | 0.00 | 73 | 1012.8 |
| 20260509083832 | 12 | 18 | 0.0 | 0.0 | 0.00 | 0.00 | 0.00 | 74 | 1013.0 |
| 20260509083329 | 12 | 358 | 0.0 | 0.0 | 0.00 | 0.00 | 0.00 | 73 | 1012.6 |
| 20260509082826 | 12 | 348 | 1.6 | 3.2 | 0.00 | 0.00 | 0.00 | 71 | 1012.8 |
| 20260509082322 | 12 | 11 | 0.0 | 0.0 | 0.00 | 0.00 | 0.00 | 71 | 1012.9 |
| 20260509081820 | 11 | 14 | 0.0 | 0.0 | 0.00 | 0.00 | 0.00 | 74 | 1012.6 |
| 20260509081316 | 12 | 356 | 0.0 | 0.0 | 0.00 | 0.00 | 0.00 | 75 | 1012.9 |
| 20260509080815 | 11 | 4 | 0.0 | 1.6 | 0.00 | 0.00 | 0.00 | 73 | 1012.8 |
| 20260509080312 | 11 | 357 | 0.0 | 1.6 | 0.00 | 0.00 | 0.00 | 73 | 1012.8 |
| 20260509075810 | 11 | 21 | 0.0 | 0.0 | 0.00 | 0.00 | 0.00 | 75 | 1012.9 |
| 20260509075307 | 11 | 356 | 1.6 | 1.6 | 0.00 | 0.00 | 0.00 | 76 | 1012.8 |
| 20260509074804 | 11 | 352 | 1.6 | 1.6 | 0.00 | 0.00 | 0.00 | 75 | 1012.9 |
| 20260509074302 | 11 | 356 | 1.6 | 1.6 | 0.00 | 0.00 | 0.00 | 76 | 1012.9 |
| 20260509073758 | 11 | 359 | 1.6 | 1.6 | 0.00 | 0.00 | 0.00 | 75 | 1013.0 |
| 20260509073254 | 11 | 345 | 1.6 | 1.6 | 0.00 | 0.00 | 0.00 | 76 | 1013.1 |
| 20260509072751 | 12 | 3 | 1.6 | 1.6 | 0.00 | 0.00 | 0.00 | 74 | 1013.3 |
| 20260509072248 | 12 | 354 | 1.6 | 1.6 | 0.00 | 0.00 | 0.00 | 73 | 1013.3 |
| 20260509071744 | 12 | 3 | 1.6 | 1.6 | 0.00 | 0.00 | 0.00 | 74 | 1013.4 |
| 20260509071242 | 12 | 10 | 0.0 | 0.0 | 0.00 | 0.00 | 0.00 | 74 | 1013.3 |
| 20260509070738 | 12 | 4 | 0.0 | 1.6 | 0.00 | 0.00 | 0.00 | 74 | 1013.1 |
| 20260509070235 | 12 | 4 | 1.6 | 1.6 | 0.00 | 0.00 | 0.00 | 74 | 1013.3 |
| 20260509065731 | 12 | 1 | 0.0 | 1.6 | 0.00 | 0.00 | 0.00 | 73 | 1013.3 |
| 20260509065227 | 12 | 60 | 1.6 | 1.6 | 0.00 | 0.00 | 0.00 | 75 | 1013.3 |
| 20260509064724 | 11 | 344 | 3.2 | 3.2 | 0.00 | 0.00 | 0.00 | 74 | 1013.3 |
| 20260509064222 | 11 | 1 | 1.6 | 1.6 | 0.00 | 0.00 | 0.00 | 77 | 1013.3 |
| 20260509063719 | 11 | 20 | 1.6 | 1.6 | 0.00 | 0.00 | 0.00 | 78 | 1013.6 |
| 20260509063215 | 11 | 357 | 1.6 | 1.6 | 0.00 | 0.00 | 0.00 | 79 | 1013.4 |
| 20260509062713 | 11 | 354 | 1.6 | 1.6 | 0.00 | 0.00 | 0.00 | 79 | 1013.4 |
| 20260509062210 | 11 | 17 | 0.0 | 0.0 | 0.00 | 0.00 | 0.00 | 78 | 1013.7 |
| 20260509061707 | 11 | 339 | 1.6 | 1.6 | 0.00 | 0.00 | 0.00 | 75 | 1013.5 |
| 20260509061204 | 11 | 24 | 0.0 | 0.0 | 0.00 | 0.00 | 0.00 | 77 | 1013.5 |
| 20260509060701 | 11 | 17 | 0.0 | 0.0 | 0.00 | 0.00 | 0.00 | 79 | 1013.7 |
| 20260509060157 | 10 | 44 | 0.0 | 0.0 | 0.00 | 0.00 | 0.00 | 81 | 1013.9 |
| 20260509055654 | 10 | 27 | 0.0 | 0.0 | 0.00 | 0.00 | 0.00 | 81 | 1013.9 |
| 20260509055149 | 10 | 12 | 0.0 | 0.0 | 0.00 | 0.00 | 0.00 | 83 | 1013.9 |
| 20260509054646 | 10 | 359 | 0.0 | 1.6 | 0.00 | 0.00 | 0.00 | 82 | 1014.2 |
| 20260509054144 | 10 | 356 | 0.0 | 1.6 | 0.00 | 0.00 | 0.00 | 83 | 1013.9 |
| 20260509053642 | 9 | 350 | 0.0 | 0.0 | 0.00 | 0.00 | 0.00 | 85 | 1013.9 |
| 20260509053138 | 9 | 33 | 0.0 | 0.0 | 0.00 | 0.00 | 0.00 | 86 | 1013.8 |
| 20260509052636 | 8 | 10 | 0.0 | 0.0 | 0.00 | 0.00 | 0.00 | 86 | 1013.7 |
| 20260509052134 | 8 | 16 | 0.0 | 0.0 | 0.00 | 0.00 | 0.00 | 86 | 1013.8 |
| 20260509051631 | 8 | 354 | 1.6 | 3.2 | 0.00 | 0.00 | 0.00 | 87 | 1014.0 |
| 20260509051128 | 8 | 33 | 0.0 | 0.0 | 0.00 | 0.00 | 0.00 | 87 | 1014.0 |
| 20260509050626 | 8 | 35 | 0.0 | 0.0 | 0.00 | 0.00 | 0.00 | 87 | 1014.0 |
| 20260509050122 | 8 | 352 | 0.0 | 1.6 | 0.00 | 0.00 | 0.00 | 88 | 1013.9 |
| 20260509045620 | 8 | 58 | 3.2 | 3.2 | 0.00 | 0.00 | 0.00 | 89 | 1013.9 |
| 20260509045116 | 8 | 17 | 0.0 | 0.0 | 0.00 | 0.00 | 0.00 | 88 | 1013.8 |
| 20260509044613 | 8 | 6 | 0.0 | 0.0 | 0.00 | 0.00 | 0.00 | 87 | 1013.7 |
| 20260509044111 | 8 | 10 | 0.0 | 0.0 | 0.00 | 0.00 | 0.00 | 86 | 1013.7 |
| 20260509043607 | 8 | 9 | 0.0 | 0.0 | 0.00 | 0.00 | 0.00 | 85 | 1013.8 |
| 20260509043102 | 8 | 3 | 0.0 | 1.6 | 0.00 | 0.00 | 0.00 | 85 | 1013.9 |
| 20260509042559 | 9 | 9 | 0.0 | 0.0 | 0.00 | 0.00 | 0.00 | 85 | 1013.6 |
| 20260509042055 | 9 | 12 | 0.0 | 0.0 | 0.00 | 0.00 | 0.00 | 84 | 1013.6 |
| 20260509041552 | 9 | 22 | 0.0 | 0.0 | 0.00 | 0.00 | 0.00 | 84 | 1013.7 |
| 20260509041050 | 9 | 18 | 0.0 | 0.0 | 0.00 | 0.00 | 0.00 | 85 | 1013.8 |
| 20260509040548 | 9 | 18 | 0.0 | 0.0 | 0.00 | 0.00 | 0.00 | 85 | 1013.7 |
| 20260509040044 | 9 | 3 | 0.0 | 0.0 | 0.00 | 0.00 | 0.00 | 85 | 1013.8 |
| 20260509035541 | 9 | 21 | 0.0 | 0.0 | 0.00 | 0.00 | 0.00 | 86 | 1013.8 |
| 20260509035038 | 9 | 27 | 0.0 | 0.0 | 0.00 | 0.00 | 0.00 | 86 | 1013.8 |
| 20260509034536 | 9 | 2 | 0.0 | 0.0 | 0.00 | 0.00 | 0.00 | 86 | 1013.8 |
| 20260509034033 | 9 | 2 | 0.0 | 0.0 | 0.00 | 0.00 | 0.00 | 86 | 1013.9 |
| 20260509033530 | 10 | 3 | 0.0 | 0.0 | 0.00 | 0.00 | 0.00 | 85 | 1013.7 |
| 20260509033027 | 10 | 3 | 0.0 | 0.0 | 0.00 | 0.00 | 0.00 | 84 | 1014.2 |